Location: *
(38.4303°S, 157.0822°W)
Time: 13:01:12
(UTC+00:00)

Cosmos 1844 Rocket - Pass Details

Date: 21 May 2024
Orbit: 825 x 842 km, 71.0° (Epoch: 14 June)

Event Time Altitude Azimuth Distance (km) Brightness Sun altitude
Exits shadow 16:32:48 - 215° (SW) 2,733 4.9 -11.0°
Reaches altitude 10° 16:33:29 10° 218° (SW) 2,489 4.7 -10.9°
Maximum altitude 16:38:46 40° 285° (WNW) 1,242 3.2 -9.9°
Drops below altitude 10° 16:43:59 10° 352° (N) 2,458 5.3 -9.0°
Sets 16:46:32 0° 360° (N) 3,383 6.1 -8.5°
